Погода в Хоромном

Россия / Брянская область     52°04′07″N   32°02′06″E
темп.,
°C
ветер,
м/с
пор.,
м/с
влажн.,
%
обл.,
%
осадки,
мм/ч
давл.,
гПа
погр.,
м
23 апреля, пт
пт2300:00+8ю499297 0.2 1014199
03:00+7ю389696 0.8 1013246
06:00+7з3796100 0.4 1014384
09:00+6зсз3694100 3.0 1015720
12:00+9зсз3565100 1.8 10151292
15:00+9зсз4555100 1.8 10161458
18:00+9з3553100 0.0 1015776
21:00+6з3669100 0.1 1015140
24 апреля, сб
сб2400:00+4зюз367771 0.0 1014128
03:00+2зюз39865 0.0 1014218
06:00+2з5118375 0.0 1014525
09:00+4з796334 0.0 10141266
12:00+4зсз81179100 0.8 10151296
15:00+7зсз9115053 1.3 10162164
18:00+6зсз7115240 0.1 10161981
21:00+2з39725 0.2 1018199
25 апреля, вс
вс2500:00+1зюз49805 0.0 1018196
03:000зюз411780 0.0 1018260
06:00−1юз37815 0.0 1017143
09:00+5ююз5958100 0.0 1015543
12:00+2з5898100 3.4 1015417
15:00+7зсз6861100 3.7 10151863
18:00+6зсз575859 0.1 10151666
21:00+1з36783 0.2 1017109
26 апреля, пн
пн2600:000зюз38835 0.0 1017154
03:00−1зюз378832 0.0 1016157
06:000з258796 0.0 1016136
09:00+4з346596 0.0 1016643
12:00+7з3457100 1.1 10151429
15:00+7з4556100 2.5 10141630
18:00+6зсз3565100 0.8 1013944
21:00+2юз357935 1.1 101473
27 апреля, вт
вт2700:000з34835 0.0 101468
03:00−1зюз38885 0.0 1014154
06:00−1юз3789100 0.0 1013186
09:00+4з467085 0.1 1013622
12:00+6зсз576672 1.1 10131173
15:00+7зсз565393 1.7 10131704
18:00+7зсз46545 0.2 10141582
21:00+2з35764 0.2 101575